VTK601 UUEE-URWW

Flight info

Callsign VTK601
Flight time N/A
Altitude 41000
Route TOGMO3H TOGMO M56 ABAGI B105 NIMTA/K0889F400 B105 NATIT NATIT2G
Aircraft A343/H-SDE2E3FGHIJ4J5M1RWXY/LB1D1

Departure

Time 2026-05-01 15:22
Airport Sheremetyevo International Airport (UUEE)

Arrival

Time N/A
Airport Volgograd International Airport (URWW)
Time Latitude Longitude Altitude Speed Heading
2026-05-01 15:06 55.98018 37.41834 643 ft 0 kts 255°
2026-05-01 15:15 55.98022 37.41860 646 ft 4 kts 255°
2026-05-01 15:15 55.98045 37.41943 643 ft 4 kts 210°
2026-05-01 15:16 55.98086 37.41957 643 ft 0 kts 171°
2026-05-01 15:16 55.98086 37.41958 643 ft 0 kts 171°
2026-05-01 15:18 55.97956 37.42013 643 ft 16 kts 165°
2026-05-01 15:18 55.97844 37.42065 645 ft 17 kts 165°
2026-05-01 15:19 55.97738 37.42536 645 ft 18 kts 75°
2026-05-01 15:19 55.97808 37.43000 648 ft 20 kts 75°
2026-05-01 15:19 55.97844 37.43246 647 ft 21 kts 75°
2026-05-01 15:20 55.97920 37.43755 651 ft 22 kts 75°
2026-05-01 15:20 55.97929 37.43998 648 ft 19 kts 122°
2026-05-01 15:20 55.97816 37.44044 649 ft 17 kts 206°
2026-05-01 15:21 55.97758 37.43863 648 ft 18 kts 253°
2026-05-01 15:21 55.97674 37.43318 650 ft 79 kts 255°
2026-05-01 15:21 55.97479 37.41995 646 ft 138 kts 255°
2026-05-01 15:21 55.97191 37.40156 966 ft 160 kts 253°
2026-05-01 15:22 55.96536 37.36061 2126 ft 192 kts 256°
2026-05-01 15:22 55.96162 37.33633 2623 ft 216 kts 256°
2026-05-01 15:22 55.95737 37.30873 3247 ft 240 kts 255°
2026-05-01 15:23 55.95281 37.27955 4270 ft 247 kts 255°
2026-05-01 15:23 55.94813 37.24979 5369 ft 252 kts 256°
2026-05-01 15:23 55.94334 37.21939 6410 ft 256 kts 256°
2026-05-01 15:23 55.93844 37.18814 7348 ft 265 kts 257°
2026-05-01 15:24 55.93347 37.15612 8346 ft 271 kts 257°
2026-05-01 15:24 55.92836 37.12378 9244 ft 278 kts 257°
2026-05-01 15:24 55.92306 37.09020 9924 ft 284 kts 257°
2026-05-01 15:24 55.91822 37.05602 10161 ft 286 kts 263°
2026-05-01 15:25 55.91866 37.02097 10185 ft 282 kts 287°
2026-05-01 15:25 55.92695 36.99007 10185 ft 275 kts 311°
2026-05-01 15:25 55.94094 36.96725 10181 ft 272 kts 326°
2026-05-01 15:25 55.95650 36.94785 10183 ft 274 kts 328°
2026-05-01 15:26 55.97260 36.92979 10177 ft 272 kts 335°
2026-05-01 15:26 55.99049 36.92002 10184 ft 269 kts 356°
2026-05-01 15:26 56.00885 36.92350 10295 ft 267 kts 19°
2026-05-01 15:26 56.02552 36.93863 10818 ft 272 kts 31°
2026-05-01 15:27 56.04138 36.95704 11801 ft 271 kts 32°
2026-05-01 15:27 56.05481 36.97292 12705 ft 269 kts 32°
2026-05-01 15:27 56.07049 36.99143 13576 ft 272 kts 32°
2026-05-01 15:28 56.10216 37.02907 14173 ft 274 kts 36°
2026-05-01 15:28 56.11577 37.05307 14182 ft 278 kts 52°
2026-05-01 15:28 56.12419 37.08439 14316 ft 284 kts 69°
2026-05-01 15:29 56.13478 37.15670 15009 ft 311 kts 72°
2026-05-01 15:29 56.13994 37.19392 15170 ft 312 kts 72°
2026-05-01 15:29 56.14931 37.26985 15180 ft 316 kts 81°
2026-05-01 15:30 56.13837 37.34675 15218 ft 334 kts 120°
2026-05-01 15:31 56.05317 37.42810 17678 ft 361 kts 150°
2026-05-01 15:31 56.00710 37.46641 19066 ft 370 kts 150°
2026-05-01 15:32 55.96103 37.50990 20086 ft 369 kts 135°
2026-05-01 15:32 55.93440 37.58172 20427 ft 345 kts 98°
2026-05-01 15:33 55.92019 37.70764 22474 ft 348 kts 94°
2026-05-01 15:34 55.88946 37.83014 24224 ft 372 kts 111°